2023-003C (55135 NORAD) Tracking and Keplerian Element Data

This shows tracking and keplerian element data for the satellite.

Feedback or suggestion? Click here.




ElementValue
Catalog55135
Name2023-003C
Epoch Orbit74
Epoch Day14.07871823
Epoch Year2023
RAAN104.0025
Inclination97.2739
Eccentricity0.0012008
Argument of Perigee278.7807
Mean Anonmoly203.254
Mean Motion15.21187498
Decay Rate8.297E-05
L11 55135U 23003C 23014.07871823 .00008297 00000+0 37431-3 0 9999
L22 55135 97.2739 104.0025 0012008 278.7807 203.2540 15.21187498 743



Live tracking and technical data element details for 2023-003C (NORAD 55135). 2023-003C can be tracked NOW for your location showing map with azimuth and elevation plus other details from your city location.







IsCatalogInMostPopularTable: catalog: 55135, numindb: 3
Update: records affected: 1



GetName: 55135 2023-003C

Hit Count: updated at: Tue, 07 Feb 2023 14:36:24 GMT